Theta_e
320 319 319 318 318 319 320 319 320 320 320 320 320 321 321 322 321 316 308 312 317 334 340 313 321 316 315 316 323 341 321 315 315 317 322 332 328 334 333 328 331 331 333 336 341
320 319 319 319 320 319 319 319 319 319 319 320 320 320 320 322 314 310 320 334 339 344 311 309 318 314 310 315 319 328 319 319 326 326 325 332 329 328 326 326 328 332 337 340 340
319 319 319 320 319 319 319 319 319 319 319 319 320 320 320 319 308 311 337 340 344 337 310 308 312 315 312 315 316 328 323 330 330 332 332 333 329 332 326 323 329 329 333 337 339
319 319 319 320 320 319 319 319 319 318 318 318 319 319 320 313 302 317 343 342 346 317 307 307 310 309 308 310 317 325 332 332 333 333 332 331 333 329 331 325 334 335 336 337 336
319 319 319 319 319 319 319 319 319 318 318 318 318 319 313 307 309 320 343 348 322 308 304 303 309 310 307 317 328 327 331 331 331 331 331 334 331 330 328 335 336 336 335 336 336
320 319 319 319 318 318 319 319 318 318 317 319 319 319 308 300 319 327 326 322 315 305 302 303 310 314 310 309 319 332 331 329 329 330 332 329 330 331 332 332 331 333 332 333 333
319 319 319 319 318 318 318 318 318 317 317 318 319 317 308 306 322 326 322 319 314 305 301 305 307 312 311 323 332 327 323 326 327 328 327 330 323 325 332 331 327 328 332 333 336
319 319 318 318 318 317 317 317 317 318 319 319 320 311 300 318 317 316 318 310 312 304 303 307 311 310 308 332 329 324 322 314 323 327 328 326 315 327 333 329 324 325 329 331 334
319 318 318 317 317 316 316 316 317 319 322 320 310 306 306 324 308 312 315 311 306 303 304 311 307 305 307 307 313 319 312 315 317 327 325 323 317 326 331 330 324 323 324 330 333
319 318 317 316 316 315 314 316 316 317 320 320 317 304 309 310 309 312 313 315 306 306 306 302 302 300 299 297 294 308 310 315 314 321 323 318 319 323 328 328 324 322 323 328 332
318 317 317 316 315 314 309 307 306 306 310 310 309 309 312 312 313 312 314 314 306 304 298 303 298 296 299 301 304 308 312 312 319 324 319 318 318 320 325 327 322 320 323 328 330
317 316 314 315 314 313 306 302 307 311 303 313 316 315 316 310 306 310 312 306 303 298 301 298 296 303 305 306 305 307 315 314 319 322 320 317 316 323 323 324 325 322 322 325 326
317 314 313 313 312 308 306 309 314 311 301 308 312 313 308 308 306 306 307 303 302 297 297 295 300 307 306 304 302 313 314 314 314 319 318 317 313 317 322 323 324 326 327 326 328
316 314 313 311 309 309 309 314 314 311 296 303 303 308 309 309 303 312 308 303 301 299 299 297 303 303 301 301 307 304 321 314 312 312 306 317 302 313 317 319 320 323 322 327 328
316 315 312 312 303 305 312 312 316 308 288 307 303 313 307 303 304 304 309 304 299 300 296 295 299 298 298 300 311 312 317 317 317 312 310 310 306 308 317 315 317 320 322 328 327
315 314 313 308 305 309 313 314 308 296 290 300 306 304 302 302 305 308 307 306 307 302 301 300 303 301 299 308 316 319 316 316 316 310 299 307 308 308 311 314 316 319 323 327 327
313 311 309 313 307 312 313 308 296 292 304 298 298 302 301 298 303 305 301 296 295 292 291 298 300 301 305 314 319 313 306 300 299 298 297 307 306 307 315 318 320 320 322 328 328
310 309 308 311 309 312 309 301 291 298 294 300 299 301 300 303 299 302 299 296 299 296 292 291 291 297 303 306 310 308 307 301 295 296 300 309 302 308 319 322 323 324 325 328 329
309 305 306 311 312 311 304 294 294 293 298 297 299 298 298 304 303 302 298 297 298 297 291 291 293 304 304 305 315 303 302 310 302 304 300 304 309 318 323 324 323 323 323 326 330
305 307 308 316 317 309 300 296 299 300 299 299 294 298 295 300 300 298 300 304 304 305 300 297 292 299 305 304 304 301 304 299 298 294 293 303 305 306 315 320 322 320 320 326 328
309 303 312 317 314 304 296 297 299 302 303 298 297 295 295 298 300 299 300 306 306 304 304 298 295 297 300 297 297 298 295 296 296 298 296 297 301 316 316 321 319 320 321 325 328
307 300 312 310 300 297 295 301 303 299 301 301 302 300 297 300 299 298 299 303 308 304 299 301 294 291 296 302 304 299 298 295 292 291 297 299 298 322 321 323 324 324 325 326 327
301 304 312 308 293 293 299 302 301 299 298 299 299 300 300 297 297 302 303 310 308 305 299 301 293 289 293 298 302 299 300 296 293 290 289 291 295 322 320 317 322 320 322 325 329
304 300 304 302 299 298 295 298 298 304 301 301 298 301 298 299 301 300 302 308 308 310 323 309 293 292 289 294 298 298 303 307 293 288 289 292 302 313 317 319 319 319 324 327 328
305 301 303 300 303 298 295 297 300 298 300 302 299 299 297 296 298 298 301 304 307 314 307 302 294 298 297 303 305 307 308 309 305 303 291 294 305 310 315 317 316 321 323 324 329
301 305 308 306 302 298 298 294 299 300 298 297 297 298 301 296 298 295 297 299 299 302 300 301 296 300 299 306 306 305 307 308 311 311 311 310 309 316 318 319 317 321 321 323 328
310 313 310 304 303 300 299 300 301 301 304 303 300 297 299 299 302 299 301 299 300 299 298 298 298 297 292 303 303 299 302 306 310 313 310 302 306 314 313 313 314 316 324 324 329
Wind_Speed
11 11 10 9 10 11 11 10 11 11 10 11 12 13 14 14 14 1 6 11 8 10 1 3 4 5 2 4 4 4 5 6 10 12 5 6 4 3 9 19 13 4 18 19 21
11 10 10 10 11 10 10 10 10 10 11 11 11 13 14 14 4 8 14 14 13 5 5 3 4 3 2 4 4 5 4 14 9 11 7 11 12 13 17 12 16 20 16 21 23
11 11 11 11 11 10 11 10 10 10 10 10 11 12 13 11 4 8 8 18 14 9 2 2 4 4 5 1 3 5 2 6 12 16 7 4 12 6 17 12 22 26 22 20 19
11 12 12 12 11 11 11 10 10 9 9 9 10 12 13 3 2 3 1 17 11 6 2 2 2 2 4 6 6 5 5 4 7 5 3 4 9 7 3 14 21 25 25 19 18
11 12 12 12 11 11 11 11 10 9 9 8 8 9 4 1 10 5 6 13 7 6 5 5 5 4 3 2 4 4 3 9 5 3 3 4 4 7 13 8 22 21 21 21 17
11 11 11 12 12 12 12 10 10 10 9 8 7 8 0 3 4 8 9 8 5 5 6 7 6 6 5 5 5 7 11 8 5 7 5 7 4 4 6 18 24 22 20 19 16
11 11 12 12 13 13 13 11 11 10 8 7 6 4 1 13 3 6 6 6 8 7 5 8 2 1 6 4 3 5 10 6 7 7 3 8 5 10 9 12 18 18 16 16 17
11 12 12 12 13 14 14 13 11 10 8 6 3 2 8 7 5 8 7 2 5 7 6 4 2 3 5 10 4 3 3 4 2 5 2 4 3 4 3 13 10 11 17 17 21
11 11 12 13 13 13 15 16 13 9 6 4 1 1 11 11 2 7 8 6 5 4 5 10 0 6 2 5 4 3 2 4 1 1 4 4 5 2 4 9 12 9 9 20 18
11 12 12 13 12 13 19 16 5 6 3 5 5 3 5 4 4 3 5 6 6 2 4 4 3 3 4 5 6 5 4 8 5 4 1 3 2 3 1 5 13 9 6 20 20
12 12 13 12 12 12 10 4 4 2 1 9 6 5 7 4 2 4 5 6 3 4 3 4 4 6 8 7 6 5 8 10 4 3 1 3 3 4 4 3 9 8 8 18 19
12 13 16 14 12 12 3 1 7 2 9 14 12 8 8 6 1 3 3 3 5 4 2 6 4 10 7 8 7 9 9 8 6 2 4 3 5 5 3 3 0 3 11 16 12
13 16 17 18 18 2 4 9 8 9 3 11 5 5 6 5 5 6 7 2 4 2 3 7 10 10 9 9 10 2 9 13 1 3 4 4 4 4 2 3 3 4 3 12 22
12 14 17 23 1 4 6 6 7 6 5 8 1 6 5 6 3 7 7 4 1 9 6 7 13 12 8 11 6 3 5 14 16 9 4 2 3 4 12 10 3 5 4 6 18
13 12 10 6 4 2 8 9 11 5 5 5 3 4 4 7 2 2 5 4 7 5 2 10 7 4 7 10 9 6 8 7 16 6 2 6 1 5 8 13 15 8 6 6 17
13 11 12 4 2 10 10 12 4 7 3 4 5 5 4 3 2 5 4 2 3 4 4 9 6 5 7 5 14 21 16 13 3 1 3 6 4 4 8 22 15 5 7 5 16
14 10 4 4 6 5 7 5 7 3 7 9 1 3 6 3 4 7 5 2 3 4 5 9 6 5 7 16 7 14 10 4 3 2 3 5 3 6 7 6 15 15 13 11 8
17 10 7 7 3 6 5 7 3 4 5 5 8 10 7 8 2 6 5 2 4 3 1 2 10 2 3 10 14 8 6 8 6 4 2 1 5 6 3 12 22 21 18 13 10
20 2 3 7 7 4 6 5 6 1 4 7 10 6 7 6 7 6 3 3 2 3 3 2 6 5 2 4 14 6 3 9 8 3 3 3 8 11 1 6 9 14 19 17 12
3 3 5 6 11 6 6 5 4 2 2 6 4 4 8 4 5 6 7 2 4 3 6 1 4 4 7 1 4 10 7 4 2 6 4 4 1 11 10 2 7 12 16 19 10
3 4 7 9 5 6 2 6 6 2 4 2 2 3 4 3 4 3 4 4 5 7 6 3 3 8 4 2 7 1 1 3 4 6 6 5 8 13 19 12 15 17 18 18 15
3 3 2 4 5 1 3 6 6 2 8 6 7 5 2 4 3 1 2 4 5 2 3 3 3 3 7 8 9 5 8 6 6 8 2 4 6 6 7 10 8 6 5 12 11
2 4 6 7 2 4 7 6 4 3 3 3 5 3 5 3 4 2 3 6 3 5 2 4 4 5 12 10 10 7 5 3 1 4 3 4 6 3 2 6 13 7 5 0 5
2 4 6 5 2 3 5 5 3 3 2 3 2 6 4 4 3 1 5 4 4 4 7 5 2 6 6 8 4 7 11 9 3 3 3 6 3 5 8 2 7 9 2 3 3
1 5 4 5 6 5 2 2 2 4 3 6 5 5 2 3 3 2 3 6 7 6 5 5 3 4 6 4 8 12 12 16 7 5 6 4 5 4 5 5 4 4 4 11 4
1 2 5 5 5 7 2 4 5 2 4 1 4 4 5 4 4 2 1 1 4 4 4 5 2 5 3 6 8 12 19 12 9 12 6 11 8 5 4 6 7 6 7 8 6
4 4 4 4 5 5 3 5 7 8 1 3 6 4 4 2 3 1 4 3 0 2 5 3 3 4 2 4 3 8 8 10 5 10 2 4 1 4 6 8 5 4 5 5 4
Wind_Direction
347 344 341 336 332 327 325 323 323 321 320 323 325 325 328 326 317 159 241 222 191 229 221 254 244 250 256 256 183 98 62 115 185 176 217 288 128 21 109 128 135 136 135 127 129
349 345 343 340 334 329 326 323 324 323 323 324 325 325 326 331 305 250 238 223 230 226 191 214 253 243 265 251 206 172 127 187 207 192 210 181 127 126 134 143 118 117 127 133 135
349 345 344 341 338 333 330 328 325 324 326 327 324 324 324 330 310 251 222 207 196 167 217 317 345 11 236 243 240 185 199 149 182 241 199 228 132 123 159 157 146 146 154 149 141
346 346 343 340 336 332 330 327 326 328 328 324 325 323 319 290 222 298 215 197 188 164 191 186 166 183 241 212 206 122 49 61 146 215 148 106 127 122 193 157 152 151 159 153 148
344 342 339 336 333 330 327 325 324 323 324 324 325 328 357 335 251 243 92 129 127 154 190 192 184 174 244 145 59 79 69 89 77 96 98 85 40 140 138 158 153 157 159 159 155
339 337 336 335 335 332 325 320 317 317 317 319 324 326 61 296 253 140 140 130 160 180 199 190 203 177 281 245 154 164 117 112 50 34 27 108 146 71 226 157 154 165 166 159 150
335 336 339 334 330 328 322 318 312 308 307 303 315 298 271 238 80 138 176 192 175 175 199 217 217 54 350 60 47 126 101 83 25 2 76 80 290 161 152 164 159 164 162 149 140
334 334 336 330 330 326 317 307 302 298 289 274 290 314 248 254 236 218 196 234 191 197 222 253 153 287 214 135 62 45 102 115 36 4 281 159 171 140 261 175 157 147 161 153 153
330 332 331 329 327 320 309 305 293 281 255 228 129 126 276 305 203 245 151 199 187 218 252 274 246 203 112 96 49 30 351 20 231 86 320 65 153 188 204 225 156 162 150 145 148
333 330 327 326 327 325 314 299 256 316 202 197 256 318 268 252 211 190 210 162 195 151 355 220 194 153 68 90 193 153 153 228 210 168 10 18 97 83 56 189 168 178 165 148 147
336 332 327 326 332 338 351 16 21 36 223 213 211 233 269 249 180 196 213 141 203 106 182 261 77 201 207 192 202 219 212 188 144 222 205 139 283 156 44 281 183 179 151 152 150
337 335 332 326 327 323 311 225 216 169 310 225 244 242 271 257 65 306 126 134 118 200 177 9 247 237 208 234 247 250 149 82 52 211 328 161 240 285 154 255 176 40 164 156 136
336 337 329 323 316 291 198 228 258 49 316 302 202 193 228 130 205 245 134 159 152 182 213 183 235 235 240 255 236 55 141 128 254 196 1 85 303 268 202 204 207 244 223 176 151
330 335 330 324 351 338 258 265 267 147 40 281 247 257 154 148 268 192 184 131 358 205 222 225 250 239 234 243 150 152 216 145 174 168 222 167 240 207 250 262 231 237 195 191 165
318 315 323 340 293 271 250 330 329 69 20 195 224 164 162 133 198 305 173 158 251 254 67 250 262 249 242 238 135 164 67 142 155 177 140 211 237 255 197 244 249 221 209 207 172
309 304 322 94 227 244 316 307 49 46 278 200 143 188 116 214 277 165 174 124 201 258 224 235 228 177 220 320 128 138 94 50 50 90 238 196 235 238 186 213 226 203 201 218 179
307 298 288 289 233 351 320 29 38 87 311 336 228 241 199 250 132 161 183 173 170 29 353 332 290 267 127 78 64 113 99 73 321 251 231 172 213 252 230 201 217 221 191 188 176
308 286 226 226 267 12 27 47 56 326 9 302 356 332 173 154 215 173 135 195 274 122 306 254 329 151 254 148 165 186 156 145 209 198 100 68 246 258 153 224 210 214 181 180 177
312 118 242 247 187 132 72 46 224 85 328 353 344 15 353 65 104 67 50 24 344 116 217 241 268 327 267 226 141 234 201 152 106 20 104 210 304 291 7 354 171 181 170 177 180
359 355 260 150 147 76 73 241 246 116 25 39 43 21 25 2 49 66 351 38 347 1 166 267 288 269 286 312 257 147 185 109 17 149 159 148 226 264 298 107 150 161 176 175 176
6 17 262 133 92 57 168 238 284 201 97 87 334 357 0 76 44 64 305 306 22 338 58 30 110 288 16 33 228 344 309 71 129 144 150 141 240 225 227 191 168 169 170 176 178
357 350 207 71 77 182 209 198 226 58 28 20 40 39 22 62 74 285 277 269 11 31 14 307 131 310 256 286 250 176 188 143 129 273 187 176 261 176 226 147 143 120 161 158 155
7 259 306 106 217 256 281 262 172 69 59 45 18 8 26 70 98 232 239 281 0 51 60 324 357 13 346 347 5 41 345 355 89 84 217 143 262 349 358 36 67 39 34 88 181
44 343 316 35 56 149 293 312 112 154 95 114 339 357 47 61 27 116 337 334 20 50 63 73 119 143 187 234 225 333 4 6 121 111 223 213 204 270 219 42 80 38 12 76 225
148 252 214 297 316 284 156 273 47 138 52 34 28 42 5 67 80 349 322 335 342 11 27 85 269 207 205 329 32 58 29 23 25 291 162 247 176 217 40 55 60 36 321 58 82
193 88 341 263 310 324 83 246 155 123 112 65 96 360 41 54 160 217 165 311 252 351 28 15 290 327 36 14 52 53 34 24 15 359 44 85 67 35 43 26 3 9 338 34 65
310 331 108 286 347 4 304 255 167 130 271 127 151 108 54 297 203 247 209 93 332 54 353 70 44 24 260 331 75 42 349 13 49 24 38 71 353 85 41 53 26 25 64 50 135